Regional Weather Roundup
Issued by NWS

Home | Current Version | Previous Version | Text Only | Print | Product List | Glossary Off
Versions: 1 2 3 4 5 6 7 8 9 10 11 12 13 14 15 16 17 18 19 20 21 22 23 24 25 26 27

000
ASUS45 KCYS 181510
RWRWY

WYOMING REGIONAL WEATHER ROUNDUP
NATIONAL WEATHER SERVICE CHEYENNE WY
900 AM MDT FRI AUG 18 2017

NOTE:  "FAIR" INDICATES FEW OR NO CLOUDS BELOW 12,000 FEET
WITH NO SIGNIFICANT WEATHER AND/OR OBSTRUCTIONS TO VISIBILITY.

WYZ001-181600-
YELLOWSTONE NATIONAL PARK

CITY           SKY/WX    TMP DP  RH WIND       PRES   REMARKS
LK YELLOWSTONE   N/A     52  45  77 VRB3      30.39R
W YELLOWSTONE  NOT AVBL

$$
WYZ002>013-054>058-071-098>099-181600-
NORTHERN WYOMING

CITY           SKY/WX    TMP DP  RH WIND       PRES   REMARKS
JACKSON        FAIR      50  32  50 CALM      30.35R
CODY             N/A    N/A N/A N/A MISG        N/A
GREYBULL       FAIR      61  40  45 SE3       30.13S
WORLAND        FAIR      66  42  41 S5        30.14S
SHERIDAN       FAIR      68  47  46 CALM      30.11S
BUFFALO        FAIR      75  34  22 CALM      30.17S
GILLETTE       FAIR      73  42  32 W6        30.13R
HULETT         FAIR      68  45  42 SW5       30.13S
NEWCASTLE      FAIR      64  43  45 CALM      30.15R

$$
WYZ014>020-022>026-101>103-181600-
CENTRAL WYOMING

CITY           SKY/WX    TMP DP  RH WIND       PRES   REMARKS
BIG PINEY      FAIR      51  33  50 CALM      30.37R
PINEDALE       FAIR      52  34  50 CALM      30.37S
DUBOIS         FAIR      54  32  43 NW6       30.34R
LANDER           N/A    N/A N/A N/A MISG      30.23S
RIVERTON       FAIR      63  40  42 CALM      30.24R
CASPER         FAIR      65  44  46 SW10      30.21S
DOUGLAS        FAIR      60  49  66 NW6       30.20S

$$
WYZ021-027>030-104>119-181600-
SOUTHERN WYOMING

CITY           SKY/WX    TMP DP  RH WIND       PRES   REMARKS
EVANSTON       FAIR      60  35  39 S5        30.36R
KEMMERER         N/A     54  36  50 N7        30.37R
FORT BRIDGER   FAIR      65  32  30 CALM      30.38S
ROCK SPRINGS   FAIR      63  34  33 CALM      30.34R
RAWLINS        FAIR      63  36  36 CALM      30.33S
SARATOGA       FAIR      61  37  41 SE3       30.35S
LARAMIE        FAIR      59  40  49 CALM      30.34S
CHEYENNE       FAIR      67  44  43 W6        30.26S
TORRINGTON     FAIR      64  49  57 NW5       30.15S
PINE BLUFFS    FAIR      66  46  48 W5        30.22S

$$




USA.gov is the U.S. government's official web portal to all federal, state and local government web resources and services.